Temperature
21 21 21 21 21 22 20 20 19 18 17 15 15 14 12 11 11 9 6 7 7 7 8 8 8 7 7 7 6 6 6 5 5 5 5 5 4 4 4 4 4 5 5 5 6 6 6 7 7
21 21 21 22 22 21 19 19 18 17 15 14 15 15 13 10 8 7 6 7 7 7 8 8 8 7 7 7 6 6 5 5 4 4 4 4 4 4 4 4 4 4 4 4 4 4 5 5 6
22 21 22 22 21 20 19 18 15 15 14 15 14 13 12 10 8 7 7 7 7 7 8 8 8 8 8 7 6 5 5 4 4 4 4 4 4 4 3 3 3 3 3 3 3 3 3 4 4
21 22 24 22 20 20 19 16 15 14 14 14 13 11 9 8 8 7 7 6 6 7 8 8 8 8 7 7 6 6 5 5 4 4 4 4 3 3 3 3 3 3 3 3 3 3 2 2 3
21 23 23 20 19 19 18 16 16 15 15 14 14 11 8 7 7 7 6 6 6 7 7 8 8 7 7 7 6 6 5 4 4 4 3 3 3 3 3 3 3 3 3 3 3 2 2 2 2
23 24 22 20 18 18 17 17 17 17 15 14 14 11 7 6 6 6 6 6 6 7 7 7 7 7 7 6 6 5 5 4 4 3 3 3 3 3 3 3 3 2 2 2 2 2 2 2 1
23 22 22 20 17 17 17 17 17 17 15 14 14 12 7 6 6 6 6 6 6 6 7 6 7 6 6 5 5 5 4 4 3 3 3 3 3 3 3 3 3 2 2 2 2 1 1 1 1
22 22 22 20 18 18 17 16 16 16 15 14 14 13 9 7 6 6 6 6 6 6 6 6 6 6 6 6 5 4 4 3 3 3 3 3 4 3 3 3 3 2 2 2 1 1 1 0 0
22 22 21 21 20 17 16 15 14 14 12 12 12 11 11 9 7 6 6 6 5 5 5 6 6 6 6 5 5 4 4 3 3 3 3 3 3 3 3 3 2 2 2 1 1 1 0 0 0
22 20 18 18 19 17 16 15 13 13 12 12 11 9 9 8 7 6 6 6 5 5 5 5 6 6 5 5 4 4 3 3 3 3 3 3 2 2 2 2 1 1 1 1 1 0 0 -0 -0
19 17 17 17 17 17 16 15 13 14 13 13 11 9 8 7 6 6 6 6 5 5 4 5 5 5 5 5 4 3 3 2 2 2 2 1 1 1 1 0 -0 -1 -1 -1 -1 -1 -2 -2 -2
17 17 17 15 16 16 16 15 14 14 14 14 13 11 8 7 7 7 7 6 5 4 4 4 4 5 5 4 4 3 2 1 1 1 0 0 0 -0 -1 -1 -2 -3 -4 -4 -5 -5 -5 -5 -5
16 15 15 13 15 15 15 14 14 14 14 13 12 10 9 7 7 7 7 6 5 4 4 4 4 4 4 4 3 2 1 1 0 -0 -1 -1 -1 -1 -2 -3 -4 -4 -5 -6 -6 -6 -6 -6 -6
16 15 14 14 14 14 14 14 14 14 13 12 11 9 8 8 7 7 7 6 5 4 3 3 4 4 4 3 2 2 1 0 -0 -1 -1 -1 -2 -2 -3 -4 -4 -6 -6 -7 -7 -7 -7 -8 -8
16 15 15 15 14 14 14 14 14 14 13 11 10 9 8 8 8 7 7 6 5 4 3 3 3 3 3 3 2 1 1 -0 -0 -1 -1 -2 -2 -3 -4 -5 -5 -6 -7 -7 -8 -8 -8 -8 -9
18 18 16 15 15 13 13 15 16 14 12 11 10 9 8 8 8 8 7 6 5 4 3 3 3 3 3 3 2 1 0 -0 -1 -1 -1 -2 -3 -4 -5 -5 -6 -7 -8 -8 -8 -9 -9 -9 -9
18 19 19 15 16 14 13 15 14 13 12 11 11 10 9 9 8 8 7 6 5 4 3 3 3 3 3 2 1 0 0 -0 -1 -1 -2 -3 -4 -4 -5 -6 -7 -8 -8 -8 -9 -9 -9 -10 -10
20 21 21 18 15 15 14 14 15 12 12 12 12 11 10 10 9 8 7 6 5 4 3 2 2 2 2 2 1 1 0 -0 -0 -1 -2 -3 -4 -5 -6 -7 -7 -8 -9 -9 -9 -9 -10 -10 -10
20 20 20 19 16 15 15 15 16 13 12 12 12 12 11 11 10 9 8 6 5 4 3 2 2 2 2 2 2 1 1 0 -1 -1 -3 -4 -4 -6 -6 -7 -8 -9 -9 -9 -9 -10 -10 -10 -10
19 19 20 18 15 15 15 15 17 16 12 12 12 13 13 12 11 10 8 7 5 4 3 2 2 2 2 2 1 1 0 -0 -1 -3 -4 -4 -5 -6 -7 -8 -8 -9 -9 -9 -10 -10 -10 -10 -10
20 19 18 17 18 16 15 16 16 16 15 13 13 13 13 13 12 11 9 7 5 4 3 2 1 2 2 2 1 1 -0 -1 -2 -3 -3 -4 -6 -7 -7 -8 -9 -9 -10 -10 -10 -10 -10 -10 -10
19 17 17 16 15 17 17 16 16 15 13 13 13 13 13 13 12 11 10 8 6 4 3 2 2 2 2 1 1 0 -1 -1 -2 -3 -4 -5 -6 -7 -8 -8 -9 -9 -10 -10 -10 -10 -10 -11 -11
18 16 16 16 16 16 17 16 17 16 15 14 14 14 14 13 13 12 10 8 6 4 3 2 2 2 1 1 1 -0 -1 -2 -2 -3 -4 -5 -6 -7 -8 -9 -9 -10 -10 -10 -10 -10 -10 -10 -11
16 16 16 15 15 16 18 18 18 17 18 18 16 16 15 14 13 11 10 8 6 4 3 2 2 1 1 1 0 -0 -1 -2 -3 -4 -5 -5 -6 -7 -8 -9 -9 -10 -10 -10 -11 -11 -10 -10 -11
15 16 16 16 15 18 18 17 17 19 19 19 18 17 15 14 13 11 9 7 5 4 3 2 1 1 1 1 -0 -1 -1 -2 -3 -4 -5 -6 -6 -7 -8 -9 -10 -10 -10 -11 -11 -11 -11 -11 -11
18 17 17 17 18 18 16 16 18 18 19 18 17 16 15 14 12 11 9 7 5 4 3 2 2 1 1 0 -0 -1 -2 -3 -3 -4 -5 -6 -7 -7 -8 -9 -10 -10 -11 -11 -11 -11 -11 -11 -11
17 17 17 16 18 17 17 19 19 17 16 16 15 15 14 13 12 10 8 7 5 3 2 2 1 1 1 0 -0 -1 -2 -3 -3 -4 -5 -6 -7 -8 -8 -9 -10 -10 -11 -11 -11 -11 -11 -11 -11
14 15 15 16 16 15 18 19 18 15 16 15 14 15 15 14 12 10 8 6 4 3 2 1 1 1 1 0 -0 -1 -2 -3 -3 -4 -5 -6 -7 -7 -8 -9 -10 -10 -11 -11 -11 -11 -11 -11 -11
14 15 15 16 16 15 15 17 20 18 19 18 17 17 16 15 13 11 8 6 4 2 1 1 1 1 1 0 -0 -1 -2 -3 -4 -4 -5 -6 -7 -7 -8 -9 -10 -10 -11 -11 -12 -11 -11 -11 -11
16 16 16 15 15 15 13 15 19 19 19 19 18 17 16 15 13 11 8 5 3 2 1 1 1 1 1 0 -1 -1 -2 -3 -3 -4 -5 -6 -7 -7 -8 -9 -9 -10 -11 -11 -11 -11 -11 -11 -11
Wind_Speed
7 11 6 2 3 2 6 7 8 8 6 7 8 8 8 7 7 10 6 6 7 9 13 15 15 16 18 18 19 20 21 22 23 24 24 25 25 25 25 26 26 26 27 27 28 28 29 30 30
8 7 4 4 3 2 6 7 11 8 9 7 5 8 9 8 9 10 7 5 9 11 13 13 14 15 17 18 19 20 20 21 22 23 24 24 24 25 25 25 25 26 26 26 27 27 28 28 29
8 7 4 3 4 5 8 11 14 11 8 6 5 8 6 7 9 6 6 7 11 12 13 12 13 15 16 17 18 18 19 20 21 22 23 23 24 24 24 25 25 26 26 26 26 26 27 27 28
5 4 4 4 9 7 9 14 13 11 5 6 9 8 5 6 5 8 8 8 12 12 12 11 12 13 14 16 16 17 19 20 20 21 22 23 23 23 24 24 25 25 26 26 26 26 26 26 27
4 4 3 6 6 9 12 14 12 10 8 6 8 8 7 6 11 11 8 9 10 10 9 9 10 11 12 14 16 16 18 19 19 20 22 22 22 22 23 23 24 25 26 26 27 27 27 27 27
4 4 3 6 8 8 9 9 8 10 8 6 6 9 7 9 10 9 9 10 10 9 8 8 8 9 10 10 13 15 16 17 18 19 21 22 22 22 23 24 25 26 26 27 27 27 27 28 28
4 4 3 8 8 7 8 6 5 8 8 7 5 8 8 10 10 9 9 11 10 9 8 8 10 10 10 10 11 13 14 16 18 18 21 22 22 22 23 24 25 26 27 27 28 27 28 29 28
5 1 4 6 9 7 9 5 3 4 6 4 1 5 9 13 12 9 8 8 9 8 8 9 10 9 10 10 10 12 13 15 17 18 20 21 21 22 22 23 25 26 27 28 28 28 30 29 28
4 2 5 4 7 8 11 6 4 5 8 4 3 7 12 19 14 10 8 7 7 7 8 9 9 9 10 9 10 11 12 14 15 16 19 19 20 20 21 23 26 27 28 28 28 29 30 29 27
5 3 6 7 6 9 11 7 8 5 7 6 7 11 17 15 12 10 10 9 8 8 7 9 7 7 9 9 10 10 10 12 13 14 17 17 19 19 20 23 24 26 27 27 28 29 28 27 24
6 6 6 7 8 10 10 8 9 7 6 8 12 15 15 12 11 11 9 8 8 8 6 7 5 5 7 9 9 10 9 10 12 12 14 15 16 17 18 19 20 22 23 22 24 24 24 24 25
6 7 7 6 5 8 8 7 7 8 2 5 12 19 17 13 12 11 9 9 9 8 7 5 4 5 5 6 7 8 9 9 11 11 11 12 13 14 16 16 18 18 18 19 19 20 22 23 24
6 6 8 6 3 5 6 5 4 7 6 6 10 17 16 14 12 10 8 9 9 8 7 5 3 4 3 3 5 7 8 8 10 9 9 11 11 12 14 15 17 18 18 17 18 19 19 20 21
8 9 8 7 6 3 3 6 4 7 9 9 12 13 14 13 12 10 9 8 8 8 8 5 3 3 2 3 5 7 7 8 8 8 9 10 11 13 14 14 15 16 16 18 18 18 18 17 18
9 8 6 6 6 4 3 7 9 6 11 10 11 12 13 13 12 10 11 9 9 9 8 6 3 1 2 4 5 7 7 7 7 7 8 9 11 13 14 13 13 15 18 18 18 18 16 14 15
6 5 6 8 7 6 2 6 6 11 11 11 11 12 12 12 12 10 11 10 9 9 8 6 3 0 2 3 6 7 7 6 6 6 7 8 11 13 13 12 13 17 18 17 14 10 6 8 9
7 7 4 7 8 7 6 6 7 11 11 11 11 12 12 12 12 11 11 11 10 9 9 7 5 2 1 3 6 7 6 6 6 6 7 8 10 12 13 13 15 17 16 14 14 8 7 9 10
3 6 4 6 9 8 8 10 8 11 11 11 12 12 13 14 14 12 11 11 11 9 9 7 5 4 1 2 4 5 5 6 7 6 7 9 10 12 13 14 14 16 12 8 7 10 9 8 9
5 6 7 3 7 5 9 11 9 14 12 12 11 13 14 14 13 13 12 12 11 10 9 7 5 3 2 0 1 3 3 4 6 7 8 9 11 12 13 13 13 13 7 7 9 9 10 9 8
6 7 5 5 7 5 7 11 8 11 15 13 12 13 13 13 12 13 13 13 12 11 10 8 7 4 2 1 1 3 4 4 7 8 7 9 11 13 13 12 11 12 8 9 9 9 8 11 9
7 2 4 5 4 8 5 6 6 2 7 11 12 12 11 12 13 13 14 13 12 11 11 9 7 4 3 2 2 3 3 4 4 3 4 9 13 14 13 13 13 12 9 8 9 9 10 12 12
3 6 3 5 6 3 5 4 8 7 7 10 12 13 13 12 11 12 14 14 13 11 10 9 7 5 4 3 3 3 4 4 5 4 4 10 12 13 13 14 13 12 11 8 9 9 9 11 13
3 2 4 6 5 5 7 5 5 7 9 12 14 14 13 12 11 11 13 14 12 11 10 9 8 7 5 4 4 4 5 4 4 5 6 6 9 12 14 14 12 12 11 10 9 9 10 9 11
4 4 5 4 3 5 6 4 4 7 8 7 10 11 11 10 10 9 10 12 11 11 10 9 8 8 7 6 6 6 5 6 6 7 6 5 5 8 12 13 13 14 12 10 9 8 11 10 11
5 4 3 3 4 4 4 3 7 8 8 6 8 10 10 10 9 10 11 12 12 12 11 9 9 8 8 7 6 5 5 6 7 6 6 6 5 5 6 11 11 13 13 13 12 8 10 11 11
3 3 3 3 4 2 3 6 6 9 8 5 4 5 6 8 9 10 12 12 12 13 12 10 10 9 7 6 5 5 5 4 4 5 6 6 6 6 10 12 13 15 14 14 12 8 10 10 9
4 3 2 3 5 5 6 7 5 6 7 7 8 9 10 10 10 11 11 12 12 13 12 11 10 8 7 7 6 6 5 5 6 6 5 5 5 9 11 13 12 13 12 12 10 7 10 10 9
4 5 2 3 3 5 8 7 6 9 10 11 11 12 12 11 11 12 12 12 12 12 11 10 9 9 7 6 6 5 5 6 6 6 7 7 7 9 9 9 10 10 10 10 7 9 10 10 10
6 4 5 4 3 3 5 7 3 10 9 8 9 9 10 11 12 12 11 12 11 11 10 10 9 8 7 7 6 5 5 6 5 6 7 6 6 8 7 8 8 8 8 7 8 10 12 11 11
3 6 7 4 5 5 4 9 7 7 6 7 8 6 6 9 11 11 12 12 11 11 10 10 10 9 8 7 6 5 6 6 7 7 7 6 6 8 9 9 9 10 10 9 9 12 12 12 12
Wind_Direction
240 237 235 256 248 121 89 88 105 119 83 59 48 64 72 45 43 116 118 76 69 53 44 28 25 28 29 29 29 27 25 23 22 20 18 17 16 15 14 13 11 9 7 5 3 1 358 356 355
261 248 255 237 257 136 102 119 111 89 103 115 84 87 89 82 88 108 114 96 81 65 54 33 31 33 32 31 29 26 24 22 19 17 15 14 12 12 10 10 8 6 4 2 0 358 355 353 351
271 262 254 250 43 41 117 112 104 102 121 119 78 41 66 102 105 97 112 119 91 76 67 42 36 36 34 31 28 25 22 20 17 15 13 11 9 8 7 7 5 3 1 359 357 355 352 350 348
279 250 231 53 72 50 108 116 123 125 116 103 114 94 70 49 84 111 129 111 91 81 77 56 41 38 35 31 27 23 20 17 14 12 10 8 7 6 5 4 2 360 357 356 354 351 349 348 345
237 259 187 95 85 86 99 120 141 142 135 142 131 112 105 92 102 115 114 94 89 88 86 73 48 38 33 29 24 20 17 13 11 10 8 5 4 3 2 1 359 357 355 353 351 348 347 345 342
261 271 257 121 114 106 111 136 159 126 120 131 131 116 121 135 131 126 126 109 96 90 82 75 53 37 28 25 20 14 11 9 7 7 6 3 2 1 360 359 357 354 353 351 348 346 345 343 340
295 303 24 100 127 145 140 151 160 131 140 153 150 118 133 156 138 140 136 120 104 89 74 65 57 35 18 15 16 7 7 6 4 5 4 2 1 359 357 357 353 352 351 349 346 345 344 341 339
316 270 100 118 149 144 133 148 88 110 111 84 122 153 159 159 142 150 135 126 122 109 83 55 52 36 18 4 4 2 3 3 2 3 2 2 360 357 354 353 350 349 349 347 345 345 342 341 340
283 239 106 97 142 131 137 142 86 34 97 118 64 36 123 137 146 152 155 167 152 121 99 71 46 30 16 2 3 360 360 0 1 1 359 360 357 352 350 348 347 348 347 345 344 344 342 342 339
341 46 67 30 35 130 153 151 142 164 148 160 125 95 116 137 154 172 188 174 143 114 97 82 56 30 20 6 356 354 354 358 355 359 358 357 355 349 349 346 344 345 343 343 342 341 342 339 334
35 66 88 45 39 119 149 140 154 185 192 187 169 150 146 159 173 190 191 146 121 112 99 96 82 49 30 2 353 345 345 355 348 352 354 356 351 346 345 343 339 339 338 338 336 337 335 332 330
79 67 84 78 49 117 141 138 173 224 74 61 154 155 159 176 188 194 180 142 127 120 116 102 93 74 43 3 339 332 344 351 339 344 350 356 347 343 342 336 334 333 331 331 333 331 326 325 325
93 102 85 98 94 106 127 166 215 223 140 101 126 149 167 184 191 192 169 140 141 137 130 121 113 80 40 345 328 337 336 338 328 336 349 352 349 341 336 331 328 327 328 331 328 321 319 320 319
114 119 120 127 113 118 191 203 215 233 142 143 150 164 178 191 194 182 160 159 160 144 135 115 92 67 12 352 343 326 323 318 323 333 343 347 350 340 332 327 323 321 326 325 318 315 315 313 312
136 130 141 159 164 149 246 242 210 183 142 165 170 179 189 198 197 187 171 176 167 146 137 129 144 80 6 356 332 310 300 309 319 327 336 343 349 336 330 320 317 318 321 318 314 311 309 310 313
183 182 184 175 173 128 214 276 161 142 158 183 185 190 197 205 201 190 178 173 159 146 143 137 161 66 3 342 312 294 295 312 313 324 331 338 339 329 326 317 313 314 317 314 309 303 308 307 304
203 234 158 155 187 159 214 263 144 146 177 195 195 200 199 206 206 195 183 168 160 157 148 150 149 187 297 310 298 301 310 316 318 323 322 326 326 324 323 315 307 313 314 308 309 317 305 303 304
0 338 358 148 180 196 224 251 199 174 192 206 203 206 207 209 207 197 185 168 160 152 144 155 161 176 192 300 316 314 315 319 311 305 306 318 320 320 319 308 307 311 307 303 303 303 300 299 302
339 317 306 94 145 209 248 261 241 178 194 213 216 210 215 215 203 191 180 165 156 155 158 165 168 167 157 171 323 308 308 300 295 293 299 313 315 314 308 301 304 305 301 298 298 302 305 305 303
277 285 319 95 157 212 275 275 258 183 196 206 218 222 217 214 200 187 176 168 168 169 169 169 171 162 167 159 247 251 265 264 275 277 303 313 307 303 304 301 300 300 297 298 299 303 304 309 312
269 286 0 337 287 215 260 268 180 175 193 201 217 231 233 217 203 187 178 174 172 175 170 170 151 167 192 189 246 277 283 286 296 320 315 303 300 300 299 299 298 297 297 296 299 302 308 311 309
325 59 358 300 296 239 194 277 203 182 208 218 221 225 232 231 208 188 179 177 176 169 150 146 154 183 196 200 233 272 283 285 290 291 279 292 302 305 304 300 300 301 298 293 301 313 306 306 309
352 57 287 279 269 278 206 243 197 172 212 219 216 218 221 219 206 191 177 173 167 153 145 150 162 190 197 202 229 251 265 275 286 289 288 294 302 303 302 301 305 301 298 295 297 301 301 302 301
312 270 235 263 263 256 178 213 231 196 197 185 190 196 199 197 191 177 159 153 148 142 144 154 175 196 195 206 227 240 259 279 290 294 297 297 292 295 298 304 307 302 297 296 297 300 302 301 299
227 271 243 228 224 220 133 216 249 170 154 170 185 187 184 179 173 166 157 157 153 152 156 167 185 201 198 205 223 238 252 264 272 283 290 294 293 292 290 305 301 297 295 300 304 305 302 300 302
266 282 314 286 289 337 199 232 248 149 145 149 167 180 179 181 177 174 168 164 161 163 166 175 191 201 195 202 224 236 248 253 259 270 278 283 284 283 292 299 297 296 300 307 306 302 300 301 301
278 229 25 305 290 275 254 230 182 137 170 198 212 214 215 203 186 175 168 167 168 170 173 180 188 194 194 201 218 235 246 261 265 272 273 271 271 289 298 299 295 296 299 301 302 297 298 297 297
269 318 260 240 267 277 282 262 220 188 221 216 215 221 220 202 184 175 174 174 172 170 172 177 183 192 191 196 218 230 234 250 257 269 273 274 279 291 293 293 295 296 296 298 297 297 295 296 296
187 223 234 263 274 241 278 271 223 172 180 193 210 213 207 193 184 179 177 173 166 162 166 174 184 189 190 199 212 232 246 254 261 266 270 274 282 289 288 292 294 296 296 293 294 294 297 294 295
213 221 200 214 231 211 247 270 246 182 171 189 219 219 193 180 176 173 171 168 168 168 172 180 187 188 191 194 201 228 246 256 260 266 274 282 284 288 289 292 295 298 299 292 289 292 296 291 291
Height
1547 1548 1550 1552 1553 1557 1569 1572 1574 1582 1586 1591 1592 1593 1597 1603 1605 1616 1616 1614 1614 1613 1612 1611 1609 1607 1605 1603 1600 1598 1596 1593 1591 1588 1586 1583 1581 1578 1576 1573 1571 1568 1566 1564 1562 1560 1558 1556 1553
1547 1549 1551 1551 1554 1564 1575 1574 1578 1583 1589 1592 1594 1595 1598 1606 1608 1611 1612 1613 1613 1612 1611 1610 1608 1606 1604 1602 1600 1597 1595 1593 1590 1588 1585 1583 1580 1577 1575 1572 1569 1566 1564 1562 1560 1557 1555 1553 1551
1548 1549 1551 1549 1557 1566 1574 1576 1583 1588 1591 1592 1595 1597 1601 1607 1609 1609 1610 1612 1612 1611 1610 1609 1607 1605 1603 1601 1599 1596 1594 1592 1589 1587 1584 1582 1579 1576 1574 1571 1568 1565 1562 1560 1557 1555 1552 1550 1548
1549 1550 1550 1553 1566 1567 1569 1577 1583 1588 1591 1593 1595 1600 1604 1607 1607 1607 1609 1611 1610 1609 1609 1608 1606 1604 1602 1600 1597 1595 1593 1590 1588 1585 1583 1580 1578 1575 1572 1569 1566 1563 1560 1558 1555 1552 1549 1547 1544
1550 1549 1549 1563 1569 1571 1574 1579 1583 1586 1590 1593 1594 1599 1604 1606 1605 1606 1608 1609 1609 1608 1607 1606 1605 1603 1601 1599 1597 1594 1592 1589 1587 1584 1582 1579 1576 1574 1571 1568 1564 1561 1558 1556 1552 1550 1547 1544 1541
1551 1547 1553 1565 1573 1575 1578 1581 1582 1585 1589 1593 1594 1598 1603 1605 1605 1606 1607 1607 1607 1607 1606 1605 1604 1602 1600 1598 1595 1593 1590 1587 1585 1583 1580 1577 1575 1572 1569 1566 1562 1559 1556 1553 1550 1547 1544 1540 1537
1551 1549 1552 1562 1574 1577 1579 1582 1583 1585 1589 1592 1594 1597 1601 1603 1603 1604 1605 1606 1606 1605 1605 1604 1602 1601 1598 1596 1593 1591 1588 1586 1584 1581 1579 1576 1573 1570 1567 1564 1560 1557 1554 1550 1547 1544 1540 1537 1534
1550 1550 1554 1561 1571 1575 1579 1582 1583 1585 1588 1591 1593 1595 1597 1599 1601 1603 1604 1604 1604 1603 1603 1602 1601 1599 1597 1594 1592 1590 1587 1585 1582 1580 1577 1574 1571 1568 1565 1561 1558 1555 1551 1547 1544 1540 1536 1533 1529
1551 1552 1558 1561 1565 1573 1578 1582 1584 1586 1588 1591 1592 1592 1591 1594 1598 1601 1602 1603 1602 1602 1601 1600 1599 1597 1595 1593 1591 1588 1586 1583 1581 1578 1575 1572 1569 1566 1563 1559 1556 1552 1548 1544 1541 1536 1532 1528 1524
1552 1555 1564 1565 1564 1570 1577 1580 1584 1586 1588 1591 1592 1592 1592 1593 1596 1598 1600 1601 1601 1599 1598 1597 1596 1595 1593 1591 1589 1586 1583 1581 1578 1575 1572 1569 1566 1563 1560 1556 1553 1549 1545 1541 1537 1533 1528 1524 1519
1557 1563 1566 1568 1568 1571 1576 1580 1583 1584 1586 1586 1587 1589 1591 1592 1594 1597 1599 1600 1598 1597 1596 1595 1594 1592 1591 1589 1586 1583 1581 1578 1575 1572 1569 1566 1563 1559 1555 1551 1547 1543 1540 1536 1532 1528 1524 1520 1516
1562 1567 1568 1571 1571 1574 1577 1579 1582 1582 1583 1582 1583 1584 1587 1590 1592 1594 1596 1596 1594 1594 1593 1592 1591 1590 1588 1586 1583 1580 1578 1575 1572 1569 1565 1562 1558 1554 1550 1546 1542 1538 1534 1530 1526 1523 1519 1516 1512
1565 1569 1571 1573 1573 1575 1577 1579 1580 1579 1580 1581 1582 1583 1584 1587 1590 1592 1594 1593 1592 1591 1590 1589 1588 1587 1585 1583 1580 1578 1575 1572 1569 1565 1562 1558 1554 1550 1546 1541 1537 1534 1530 1526 1522 1518 1515 1511 1507
1566 1569 1572 1574 1575 1576 1577 1578 1579 1576 1577 1578 1580 1581 1583 1585 1587 1589 1589 1589 1589 1588 1587 1586 1585 1584 1582 1580 1577 1574 1571 1568 1566 1562 1559 1555 1551 1546 1542 1538 1534 1530 1527 1523 1519 1515 1511 1507 1503
1567 1570 1573 1573 1574 1576 1578 1576 1572 1572 1574 1577 1579 1580 1581 1583 1585 1585 1585 1586 1586 1584 1583 1582 1582 1581 1579 1577 1574 1571 1568 1565 1563 1560 1556 1552 1548 1543 1539 1535 1531 1527 1524 1520 1516 1512 1508 1504 1500
1566 1566 1571 1571 1572 1575 1579 1574 1565 1568 1572 1575 1576 1577 1578 1580 1581 1582 1582 1582 1582 1580 1579 1579 1578 1577 1576 1574 1571 1568 1565 1563 1560 1557 1553 1549 1545 1540 1536 1532 1528 1524 1521 1517 1512 1508 1504 1500 1495
1564 1562 1560 1571 1570 1572 1575 1571 1568 1567 1569 1571 1573 1574 1575 1576 1577 1578 1578 1577 1577 1576 1575 1575 1574 1574 1572 1570 1567 1565 1562 1560 1557 1554 1550 1546 1542 1537 1533 1529 1525 1521 1518 1513 1510 1505 1501 1496 1490
1561 1556 1554 1561 1567 1569 1571 1567 1564 1564 1566 1567 1568 1570 1571 1570 1571 1572 1573 1573 1572 1572 1571 1571 1570 1570 1568 1566 1564 1562 1559 1557 1554 1551 1547 1543 1539 1534 1530 1526 1522 1518 1514 1510 1506 1501 1497 1492 1487
1558 1559 1558 1558 1564 1567 1566 1562 1557 1559 1562 1563 1564 1564 1565 1565 1566 1567 1568 1568 1567 1566 1566 1567 1566 1566 1564 1563 1561 1558 1556 1553 1550 1547 1544 1540 1536 1531 1527 1522 1519 1515 1511 1507 1503 1498 1493 1488 1483
1559 1559 1557 1559 1563 1564 1562 1558 1551 1552 1554 1556 1558 1558 1559 1560 1561 1562 1562 1562 1560 1561 1561 1562 1562 1561 1560 1559 1557 1554 1552 1549 1546 1544 1540 1537 1532 1528 1524 1520 1516 1512 1507 1503 1499 1495 1490 1484 1480
1556 1558 1560 1563 1559 1558 1563 1555 1550 1550 1551 1552 1553 1553 1554 1554 1555 1556 1556 1555 1555 1556 1556 1557 1557 1557 1556 1555 1553 1550 1548 1545 1543 1540 1537 1533 1528 1525 1521 1516 1512 1508 1504 1500 1496 1492 1487 1480 1475
1559 1560 1561 1562 1565 1559 1558 1564 1551 1548 1550 1548 1547 1547 1547 1548 1550 1550 1550 1549 1549 1551 1551 1552 1553 1553 1552 1551 1549 1546 1544 1542 1539 1536 1532 1528 1525 1521 1517 1513 1509 1505 1501 1496 1492 1488 1483 1478 1471
1559 1561 1562 1562 1562 1560 1554 1560 1547 1543 1546 1542 1540 1540 1541 1542 1544 1545 1544 1544 1545 1546 1546 1547 1548 1549 1548 1547 1545 1543 1540 1538 1535 1532 1528 1524 1521 1517 1513 1509 1505 1501 1496 1492 1488 1484 1479 1474 1469
1559 1560 1561 1562 1562 1564 1547 1553 1544 1539 1533 1531 1533 1534 1536 1537 1539 1540 1540 1540 1540 1540 1540 1542 1544 1544 1544 1543 1541 1539 1537 1534 1531 1527 1524 1520 1516 1512 1509 1505 1501 1496 1492 1488 1484 1479 1475 1470 1465
1561 1563 1565 1566 1571 1555 1544 1548 1541 1524 1523 1526 1528 1530 1531 1533 1534 1534 1535 1534 1534 1534 1535 1537 1539 1539 1539 1538 1537 1535 1533 1530 1527 1523 1520 1515 1511 1508 1504 1500 1496 1492 1488 1484 1479 1474 1470 1465 1460
1554 1559 1567 1569 1560 1550 1548 1549 1529 1518 1520 1522 1524 1526 1528 1528 1528 1529 1529 1528 1528 1528 1530 1532 1534 1534 1534 1534 1532 1531 1529 1526 1523 1520 1516 1512 1508 1504 1500 1496 1491 1487 1483 1479 1474 1470 1465 1461 1456
1555 1554 1555 1562 1553 1558 1547 1529 1520 1518 1519 1520 1521 1522 1522 1523 1523 1523 1523 1523 1523 1523 1524 1527 1529 1530 1529 1529 1528 1527 1525 1522 1519 1516 1512 1508 1504 1500 1496 1491 1487 1483 1478 1474 1469 1464 1460 1456 1451
1559 1556 1559 1561 1565 1566 1545 1530 1526 1523 1518 1516 1516 1516 1516 1517 1517 1516 1516 1517 1517 1518 1520 1522 1524 1525 1525 1524 1523 1522 1520 1518 1515 1511 1508 1504 1500 1496 1491 1487 1483 1478 1473 1469 1464 1459 1455 1451 1446
1559 1558 1556 1555 1554 1565 1560 1539 1506 1508 1506 1508 1509 1510 1510 1510 1510 1510 1510 1511 1512 1513 1514 1516 1518 1519 1519 1519 1519 1518 1516 1514 1511 1507 1503 1500 1496 1492 1487 1483 1478 1473 1469 1464 1459 1454 1450 1446 1441
1546 1546 1550 1559 1554 1553 1559 1540 1501 1500 1500 1503 1505 1505 1505 1505 1505 1505 1505 1506 1506 1507 1508 1510 1513 1514 1514 1514 1514 1513 1512 1509 1506 1503 1500 1496 1492 1487 1483 1478 1474 1469 1464 1459 1454 1449 1445 1440 1435